Tracking 28790 objects as of 18-Apr-2024
HD Live streaming from Space Station
objects crossing your sky now

COSMOS 1823 DEB

Track COSMOS 1823 DEB now!
10-day predictions


NORAD ID: 39813
Int'l Code: 1987-020EM
Perigee: 1,447.3 km
Apogee: 1,510.7 km
Inclination: 73.6 °
Period: 115.4 minutes
Semi major axis: 7850 km
RCS: 0.0189 m2 (small)
Launch date: February 20, 1987
Source: Commonwealth of Independent States (former USSR) (CIS)
Launch site: PLESETSK MISSILE AND SPACE COMPLEX (PKMTR)

Note: This is SATELLITE DEBRIS
Your satellite tracking list
Your tracking list is empty




NASA's NSSDC Master Catalog

Two Line Element Set (TLE):
1 39813U 87020EM  24107.27615632  .00000494  00000-0  34318-2 0  9995
2 39813  73.6357 303.7569 0040410 124.4476  51.0238 12.48236720449121
Source of the keplerian elements: AFSPC